Litchfield, MN

9:28 PM CDT on August 19, 2017 (GMT -0500)
Litchfield Municipal

Weather History for KLJF - July, 2013

Change the Weather History Date:

Tuesday, July 2, 2013

  Actual Average Record
Temperature  
Mean Temperature 72 °F -  
Max Temperature 84 °F 83 °F 96 °F (2012)
Min Temperature 60 °F 60 °F 48 °F (1968)
Cooling Degree Days 7    
Growing Degree Days 22 (Base 50)    
Moisture  
Dew Point 56 °F    
Average Humidity 59    
Maximum Humidity 94    
Minimum Humidity 30    
Precipitation  
Precipitation 0.00 in - - ()
Sea Level Pressure  
Sea Level Pressure 30.14 in    
Wind  
Wind Speed 1 mph (NE)    
Max Wind Speed 8 mph    
Max Gust Speed -    
Visibility 10 miles    
Events      
Averages and records for this station are not official NWS values.
T = Trace of Precipitation, MM = Missing Value Source: NWS Daily Summary

Daily Weather History Graph

Daily Weather History Graph

Search for Another Location

Airport or City:

Trip Planner

Search our weather history database for the weather conditions in past years. The results will help you decide how hot, cold, wet, or windy it might be!

Date:

Astronomy

Jul. 02, 2013 Rise Set
Actual Time 5:35 AM CDT 9:08 PM CDT
Civil Twilight 4:58 AM CDT 9:45 PM CDT
Nautical Twilight 4:09 AM CDT 10:34 PM CDT
Astronomical Twilight 3:04 AM CDT 11:38 PM CDT
Moon 1:46 AM CDT (7/2) 4:16 PM CDT (7/2)
Length of Visible Light 16h 47m
Length of Day
15h 32m
Waning Crescent, 26% of the Moon is Illuminated
Jul 2
Waning Crescent
Jul 8
New
Jul 15
First Quarter
Jul 22
Full
Jul 29
Last Quarter

Hourly Weather History & Observations

Time (CDT) Temp. Heat Index Dew Point Humidity Pressure Visibility Wind Dir Wind Speed Gust Speed Precip Events Conditions
12:13 AM 66.2 °F - 59.0 °F 78% 30.18 in 10.0 mi Calm Calm - N/A   Unknown
12:33 AM 66.2 °F - 59.0 °F 78% 30.18 in 10.0 mi Calm Calm - N/A   Unknown
12:53 AM 64.4 °F - 59.0 °F 83% 30.18 in 10.0 mi Calm Calm - N/A   Unknown
1:13 AM 64.4 °F - 60.8 °F 88% 30.18 in 10.0 mi Calm Calm - N/A   Unknown
1:33 AM 64.4 °F - 59.0 °F 83% 30.18 in 10.0 mi Calm Calm - N/A   Clear
1:51 AM 64.4 °F - 59.0 °F 83% 30.18 in 10.0 mi Calm Calm - N/A   Unknown
2:13 AM 64.4 °F - 59.0 °F 83% 30.18 in 10.0 mi Calm Calm - N/A   Unknown
2:32 AM 64.4 °F - 57.2 °F 77% 30.17 in 10.0 mi Calm Calm - N/A   Clear
2:53 AM 64.4 °F - 59.0 °F 83% 30.18 in 10.0 mi Calm Calm - N/A   Scattered Clouds
3:13 AM 62.6 °F - 60.8 °F 94% 30.17 in 10.0 mi Calm Calm - N/A   Unknown
3:32 AM 62.6 °F - 59.0 °F 88% 30.17 in 10.0 mi Calm Calm - N/A   Unknown
3:53 AM 62.6 °F - 57.2 °F 82% 30.18 in 10.0 mi Calm Calm - N/A   Unknown
4:13 AM 62.6 °F - 59.0 °F 88% 30.18 in 10.0 mi Calm Calm - N/A   Clear
4:32 AM 60.8 °F - 59.0 °F 94% 30.18 in 10.0 mi Calm Calm - N/A   Clear
4:53 AM 62.6 °F - 59.0 °F 88% 30.18 in 10.0 mi Calm Calm - N/A   Clear
5:13 AM 62.6 °F - 57.2 °F 82% 30.18 in 10.0 mi Calm Calm - N/A   Clear
5:32 AM 62.6 °F - 59.0 °F 88% 30.18 in 10.0 mi Calm Calm - N/A   Scattered Clouds
5:53 AM 62.6 °F - 59.0 °F 88% 30.18 in 10.0 mi Calm Calm - N/A   Scattered Clouds
6:13 AM 62.6 °F - 57.2 °F 82% 30.19 in 10.0 mi Calm Calm - N/A   Unknown
6:32 AM 62.6 °F - 59.0 °F 88% 30.19 in 10.0 mi Calm Calm - N/A   Overcast
6:53 AM 64.4 °F - 59.0 °F 83% 30.19 in 10.0 mi East 3.5 mph - N/A   Scattered Clouds
7:13 AM 64.4 °F - 59.0 °F 83% 30.19 in 10.0 mi ENE 3.5 mph - N/A   Scattered Clouds
7:32 AM 64.4 °F - 59.0 °F 83% 30.19 in 10.0 mi East 4.6 mph - N/A   Scattered Clouds
7:53 AM 66.2 °F - 59.0 °F 78% 30.19 in 10.0 mi East 4.6 mph - N/A   Clear
8:13 AM 66.2 °F - 57.2 °F 73% 30.19 in 10.0 mi Calm Calm - N/A   Clear
8:32 AM 69.8 °F - 57.2 °F 64% 30.19 in 10.0 mi Calm Calm - N/A   Clear
8:53 AM 69.8 °F - 57.2 °F 64% 30.19 in 10.0 mi Calm Calm - N/A   Clear
9:12 AM 71.6 °F - 57.2 °F 60% 30.18 in 10.0 mi Calm Calm - N/A   Clear
9:33 AM 71.6 °F - 57.2 °F 60% 30.18 in 10.0 mi Calm Calm - N/A   Clear
9:53 AM 73.4 °F - 57.2 °F 57% 30.18 in 10.0 mi Calm Calm - N/A   Clear
10:12 AM 73.4 °F - 57.2 °F 57% 30.17 in 10.0 mi Calm Calm - N/A   Clear
10:33 AM 75.2 °F - 50.0 °F 41% 30.17 in 10.0 mi Calm Calm - N/A   Clear
10:53 AM 78.8 °F - 53.6 °F 42% 30.16 in 10.0 mi Calm Calm - N/A   Clear
11:12 AM 77.0 °F - 51.8 °F 41% 30.16 in 10.0 mi Calm Calm - N/A   Scattered Clouds
11:33 AM 78.8 °F - 50.0 °F 36% 30.16 in 10.0 mi Calm Calm - N/A   Clear
11:53 AM 80.6 °F - 51.8 °F 37% 30.16 in 10.0 mi Calm Calm - N/A   Clear
12:13 PM 80.6 °F - 51.8 °F 37% 30.16 in 4.0 mi Calm Calm - N/A   Haze
12:33 PM 80.6 °F - 51.8 °F 37% 30.16 in 10.0 mi North 4.6 mph - N/A   Clear
12:53 PM 80.6 °F 80.3 °F 53.6 °F 39% 30.15 in 10.0 mi NNE 6.9 mph - N/A   Clear
1:13 PM 82.4 °F 81.4 °F 53.6 °F 37% 30.15 in 10.0 mi North 4.6 mph - N/A   Clear
1:33 PM 82.4 °F 81.4 °F 53.6 °F 37% 30.15 in 10.0 mi Calm Calm - N/A   Clear
1:53 PM 82.4 °F 81.4 °F 53.6 °F 37% 30.14 in 10.0 mi NNE 3.5 mph - N/A   Clear
2:13 PM 82.4 °F - 51.8 °F 35% 30.13 in 10.0 mi North 6.9 mph - N/A   Clear
2:33 PM 82.4 °F - 51.8 °F 35% 30.12 in 10.0 mi ENE 6.9 mph - N/A   Clear
2:52 PM 82.4 °F - 51.8 °F 35% 30.13 in 10.0 mi NE 4.6 mph - N/A   Scattered Clouds
3:13 PM 84.2 °F - 50.0 °F 30% 30.11 in 10.0 mi North 4.6 mph - N/A   Scattered Clouds
3:33 PM 84.2 °F - 50.0 °F 30% 30.11 in 10.0 mi NNE 3.5 mph - N/A   Scattered Clouds
3:52 PM 82.4 °F - 50.0 °F 32% 30.10 in 10.0 mi North 6.9 mph - N/A   Clear
4:13 PM 84.2 °F - 50.0 °F 30% 30.10 in 10.0 mi ENE 5.8 mph - N/A   Clear
4:33 PM 84.2 °F - 51.8 °F 33% 30.09 in 10.0 mi ENE 4.6 mph - N/A   Scattered Clouds
4:52 PM 84.2 °F - 51.8 °F 33% 30.09 in 10.0 mi NE 5.8 mph - N/A   Scattered Clouds
5:13 PM 82.4 °F - 51.8 °F 35% 30.08 in 10.0 mi NNW 5.8 mph - N/A   Clear
5:33 PM 84.2 °F - 51.8 °F 33% 30.08 in 10.0 mi NE 5.8 mph - N/A   Clear
5:52 PM 84.2 °F - 51.8 °F 33% 30.08 in 10.0 mi East 8.1 mph - N/A   Clear
6:13 PM 82.4 °F - 51.8 °F 35% 30.08 in 10.0 mi East 5.8 mph - N/A   Clear
6:33 PM 82.4 °F 81.4 °F 53.6 °F 37% 30.07 in 10.0 mi East 6.9 mph - N/A   Clear
6:52 PM 82.4 °F - 51.8 °F 35% 30.08 in 10.0 mi East 4.6 mph - N/A   Clear
7:13 PM 82.4 °F - 51.8 °F 35% 30.08 in 10.0 mi East 4.6 mph - N/A   Clear
7:33 PM 80.6 °F 80.3 °F 53.6 °F 39% 30.08 in 10.0 mi East 4.6 mph - N/A   Clear
7:52 PM 80.6 °F 80.3 °F 53.6 °F 39% 30.08 in 10.0 mi East 4.6 mph - N/A   Clear
8:13 PM 78.8 °F - 55.4 °F 44% 30.08 in 10.0 mi East 3.5 mph - N/A   Clear
8:33 PM 75.2 °F - 57.2 °F 53% 30.08 in 10.0 mi Calm Calm - N/A   Clear
8:53 PM 73.4 °F - 57.2 °F 57% 30.08 in 10.0 mi Calm Calm - N/A   Clear
9:13 PM 73.4 °F - 57.2 °F 57% 30.08 in 10.0 mi East 3.5 mph - N/A   Clear
9:33 PM 71.6 °F - 57.2 °F 60% 30.09 in 10.0 mi Calm Calm - N/A   Clear
9:53 PM 71.6 °F - 57.2 °F 60% 30.09 in 10.0 mi Calm Calm - N/A   Clear
10:13 PM 71.6 °F - 55.4 °F 57% 30.10 in 10.0 mi Calm Calm - N/A   Clear
10:33 PM 69.8 °F - 57.2 °F 64% 30.10 in 10.0 mi Calm Calm - N/A   Scattered Clouds
10:53 PM 69.8 °F - 57.2 °F 64% 30.09 in 10.0 mi Calm Calm - N/A   Scattered Clouds
11:13 PM 69.8 °F - 60.8 °F 73% 30.10 in 10.0 mi Calm Calm - N/A   Scattered Clouds
11:33 PM 68.0 °F - 60.8 °F 78% 30.09 in 10.0 mi Calm Calm - N/A   Unknown
11:53 PM 68.0 °F - 60.8 °F 78% 30.10 in 10.0 mi Calm Calm - N/A   Unknown